Lincoln, NE

7:45 AM CST on November 18, 2019 (GMT -0600)
Lincoln Municipal

Weather History for KLNK - August, 2019

Change the Weather History Date:

Tuesday, August 13, 2019

  Actual Average Record
Temperature  
Mean Temperature 79 °F 76 °F  
Max Temperature 89 °F 87 °F 108 °F (1936)
Min Temperature 69 °F 65 °F 49 °F (2004)
Degree Days  
Heating Degree Days 0 0  
Month to date heating degree days 0 0  
Since 1 June heating degree days 6 17  
Since 1 July heating degree days 0 1  
Cooling Degree Days 14 11  
Month to date cooling degree days 168 152  
Year to date cooling degree days 914 863  
Since 1 June cooling degree days 842 784  
Growing Degree Days 30 (Base 50)    
Moisture  
Dew Point 66 °F    
Average Humidity 64    
Maximum Humidity 90    
Minimum Humidity 38    
Precipitation  
Precipitation 0.00 in 0.11 in 1.83 in (1957)
Month to date precipitation 1.34 1.39  
Year to date precipitation 23.21 19.48  
Snow  
Snow 0.00 in 0.00 in 0.00 in (2006)
Month to date snowfall 0.0 0.0  
Since 1 June snowfall 0.0 0.0  
Since 1 July snowfall 0.0 0.0  
Snow Depth 0.00 in    
Sea Level Pressure  
Sea Level Pressure 29.98 in    
Wind  
Wind Speed 7 mph (NNW)    
Max Wind Speed 15 mph    
Max Gust Speed 20 mph    
Visibility 10 miles    
Events      
T = Trace of Precipitation, MM = Missing Value Source: NWS Daily Summary

Daily Weather History Graph

Daily Weather History Graph

Search for Another Location

Airport or City:

Astronomy

Aug. 13, 2019 Rise Set
Actual Time 6:34 AM CDT 8:28 PM CDT
Civil Twilight 6:05 AM CDT 8:57 PM CDT
Nautical Twilight 5:29 AM CDT 9:33 PM CDT
Astronomical Twilight 4:50 AM CDT 10:12 PM CDT
Moon 7:44 PM CDT (8/13) 4:37 AM CDT (8/13)
Length of Visible Light 14h 52m
Length of Day
13h 53m
Waxing Gibbous, 97% of the Moon is Illuminated
Aug 13
Waxing Gibbous
Aug 15
Full
Aug 23
Last Quarter
Aug 30
New
Sep 5
First Quarter

Hourly Weather History & Observations

Time (CDT) Temp. Heat Index Dew Point Humidity Pressure Visibility Wind Dir Wind Speed Gust Speed Precip Events Conditions
12:54 AM 77.0 °F - 71.1 °F 82% 29.88 in 10.0 mi Calm Calm - N/A   Clear
1:54 AM 75.0 °F - 70.0 °F 84% 29.88 in 10.0 mi NW 5.8 mph - N/A   Clear
2:54 AM 73.9 °F - 70.0 °F 87% 29.89 in 10.0 mi NNW 8.1 mph - N/A   Clear
3:54 AM 73.9 °F - 70.0 °F 87% 29.90 in 10.0 mi NNW 11.5 mph - N/A   Clear
4:54 AM 73.9 °F - 70.0 °F 87% 29.94 in 10.0 mi NNW 9.2 mph - N/A   Mostly Cloudy
5:54 AM 73.0 °F - 69.1 °F 87% 29.96 in 10.0 mi NNW 11.5 mph - N/A   Clear
6:54 AM 72.0 °F - 68.0 °F 87% 29.97 in 10.0 mi NNW 6.9 mph - N/A   Clear
7:54 AM 73.9 °F - 68.0 °F 82% 30.00 in 10.0 mi NNW 4.6 mph - N/A   Clear
8:54 AM 77.0 °F - 69.1 °F 76% 30.00 in 10.0 mi North 4.6 mph - N/A   Clear
9:54 AM 79.0 °F - 68.0 °F 69% 30.00 in 10.0 mi North 5.8 mph - N/A   Clear
10:54 AM 82.0 °F 84.1 °F 66.0 °F 58% 30.02 in 10.0 mi North 8.1 mph - N/A   Clear
11:54 AM 84.0 °F 84.9 °F 63.0 °F 49% 30.02 in 10.0 mi North 6.9 mph - N/A   Clear
12:54 PM 86.0 °F 86.8 °F 63.0 °F 46% 30.04 in 10.0 mi Variable 4.6 mph - N/A   Clear
1:54 PM 86.0 °F 86.8 °F 63.0 °F 46% 30.02 in 10.0 mi North 6.9 mph - N/A   Clear
2:54 PM 86.0 °F 85.7 °F 60.1 °F 41% 29.99 in 10.0 mi Calm Calm - N/A   Clear
3:54 PM 88.0 °F 87.6 °F 60.1 °F 39% 29.99 in 10.0 mi NW 5.8 mph 17.3 mph N/A   Clear
4:54 PM 89.1 °F 88.8 °F 60.1 °F 38% 29.98 in 10.0 mi NNW 8.1 mph - N/A   Clear
5:54 PM 87.1 °F 86.7 °F 60.1 °F 40% 29.98 in 10.0 mi NW 9.2 mph - N/A   Clear
6:54 PM 84.0 °F 84.9 °F 63.0 °F 49% 29.98 in 10.0 mi West 5.8 mph - N/A   Clear
7:54 PM 82.0 °F 84.1 °F 66.0 °F 58% 29.99 in 10.0 mi WNW 12.7 mph - N/A   Partly Cloudy
8:54 PM 78.1 °F - 64.9 °F 64% 30.01 in 10.0 mi North 6.9 mph - N/A   Clear
9:54 PM 75.9 °F - 64.9 °F 69% 30.03 in 10.0 mi WNW 4.6 mph - N/A   Clear
10:54 PM 75.0 °F - 64.9 °F 71% 30.04 in 10.0 mi NW 5.8 mph - N/A   Clear
11:54 PM 73.0 °F - 64.0 °F 73% 30.06 in 10.0 mi NW 4.6 mph - N/A   Clear